Location: Ústí nad Labem
(50.6611°N, 14.0531°E)
Time: 11:48:12
(UTC+02:00)

Envisat - Pass Details

Date: 01 March 2024
Orbit: 762 x 764 km, 98.3° (Epoch: 21 April)

Event Time Altitude Azimuth Distance (km) Brightness Sun altitude
Rises 04:38:30 0° 8° (N) 3,245 6.5 -21.1°
Reaches altitude 10° 04:40:59 10° 360° (N) 2,314 5.6 -20.7°
Maximum altitude 04:45:33 34° 296° (WNW) 1,239 3.7 -20.0°
Enters shadow 04:45:42 34° 292° (WNW) 1,240 3.6 -20.0°
